Time,TemperatureF,DewpointF,PressureIn,WindDirection,WindDirectionDegrees,WindSpeedMPH,WindSpeedGustMPH,Humidity,HourlyPrecipIn,Conditions,Clouds,dailyrainin,SoftwareType,DateUTC
2013-11-12 00:03:00,37.9,31.0,30.15,East,90,2.0,4.0,76,0.00,,,0.00,Weather View 32 v70,2013-11-12 08:03:00,
2013-11-12 00:08:00,37.9,31.0,30.15,East,90,0.0,4.0,76,0.00,,,0.00,Weather View 32 v70,2013-11-12 08:08:00,
2013-11-12 00:13:00,37.9,31.0,30.15,East,90,0.0,4.0,76,0.00,,,0.00,Weather View 32 v70,2013-11-12 08:13:00,
2013-11-12 00:18:00,37.9,31.0,30.15,East,90,0.0,4.0,76,0.00,,,0.00,Weather View 32 v70,2013-11-12 08:18:00,
2013-11-12 00:23:00,37.9,31.0,30.15,East,90,0.0,4.0,76,0.00,,,0.00,Weather View 32 v70,2013-11-12 08:23:00,
2013-11-12 00:28:00,37.9,31.0,30.15,East,90,0.0,4.0,76,0.00,,,0.00,Weather View 32 v70,2013-11-12 08:28:00,
2013-11-12 00:33:00,37.9,31.0,30.15,East,90,3.0,4.0,76,0.00,,,0.00,Weather View 32 v70,2013-11-12 08:33:00,
2013-11-12 00:38:00,37.9,31.0,30.15,East,90,0.0,4.0,76,0.00,,,0.00,Weather View 32 v70,2013-11-12 08:38:00,
2013-11-12 00:43:00,37.9,31.0,30.15,East,90,2.0,4.0,76,0.00,,,0.00,Weather View 32 v70,2013-11-12 08:43:00,
2013-11-12 00:48:00,37.8,31.2,30.15,East,90,0.0,4.0,77,0.00,,,0.00,Weather View 32 v70,2013-11-12 08:48:00,
2013-11-12 00:53:00,37.8,31.2,30.15,East,90,2.0,4.0,77,0.00,,,0.00,Weather View 32 v70,2013-11-12 08:53:00,
2013-11-12 00:58:00,37.8,31.2,30.15,East,90,3.0,4.0,77,0.00,,,0.00,Weather View 32 v70,2013-11-12 08:58:00,
2013-11-12 01:03:00,37.8,31.2,30.15,East,90,0.0,4.0,77,0.00,,,0.00,Weather View 32 v70,2013-11-12 09:03:00,
2013-11-12 01:08:00,37.6,31.0,30.15,East,90,0.0,4.0,77,0.00,,,0.00,Weather View 32 v70,2013-11-12 09:08:00,
2013-11-12 01:13:00,37.6,31.0,30.15,East,90,3.0,4.0,77,0.00,,,0.00,Weather View 32 v70,2013-11-12 09:13:00,
2013-11-12 01:18:00,37.6,31.0,30.15,East,90,3.0,4.0,77,0.00,,,0.00,Weather View 32 v70,2013-11-12 09:18:00,
2013-11-12 01:23:00,37.6,31.0,30.15,East,90,3.0,4.0,77,0.00,,,0.00,Weather View 32 v70,2013-11-12 09:23:00,
2013-11-12 01:28:00,37.6,31.0,30.15,East,90,0.0,4.0,77,0.00,,,0.00,Weather View 32 v70,2013-11-12 09:28:00,
2013-11-12 01:33:00,37.4,30.8,30.15,East,90,0.0,4.0,77,0.00,,,0.00,Weather View 32 v70,2013-11-12 09:33:00,
2013-11-12 01:38:00,37.4,30.8,30.15,East,90,0.0,4.0,77,0.00,,,0.00,Weather View 32 v70,2013-11-12 09:38:00,
2013-11-12 01:43:00,37.4,30.8,30.15,East,90,0.0,4.0,77,0.00,,,0.00,Weather View 32 v70,2013-11-12 09:43:00,
2013-11-12 01:48:00,37.4,30.8,30.15,East,90,0.0,4.0,77,0.00,,,0.00,Weather View 32 v70,2013-11-12 09:48:00,
2013-11-12 01:53:00,37.4,31.2,30.15,East,90,0.0,4.0,78,0.00,,,0.00,Weather View 32 v70,2013-11-12 09:53:00,
2013-11-12 01:58:00,37.2,31.3,30.15,East,90,0.0,4.0,79,0.00,,,0.00,Weather View 32 v70,2013-11-12 09:58:00,
2013-11-12 02:03:00,37.2,31.3,30.15,East,90,3.0,4.0,79,0.00,,,0.00,Weather View 32 v70,2013-11-12 10:03:00,
2013-11-12 02:08:00,37.2,31.6,30.15,East,90,0.0,4.0,80,0.00,,,0.00,Weather View 32 v70,2013-11-12 10:08:00,
2013-11-12 02:13:00,37.0,31.4,30.15,East,90,3.0,4.0,80,0.00,,,0.00,Weather View 32 v70,2013-11-12 10:13:00,
2013-11-12 02:18:00,37.0,31.4,30.15,East,90,3.0,4.0,80,0.00,,,0.00,Weather View 32 v70,2013-11-12 10:18:00,
2013-11-12 02:23:00,37.0,31.7,30.15,East,90,3.0,4.0,81,0.00,,,0.00,Weather View 32 v70,2013-11-12 10:23:00,
2013-11-12 02:28:00,36.9,31.6,30.15,East,90,3.0,4.0,81,0.00,,,0.00,Weather View 32 v70,2013-11-12 10:28:00,
2013-11-12 02:33:00,36.9,31.9,30.18,East,90,0.0,4.0,82,0.00,,,0.00,Weather View 32 v70,2013-11-12 10:33:00,
2013-11-12 02:38:00,36.9,31.9,30.18,East,90,0.0,4.0,82,0.00,,,0.00,Weather View 32 v70,2013-11-12 10:38:00,
2013-11-12 02:43:00,36.7,31.7,30.18,East,90,0.0,4.0,82,0.00,,,0.00,Weather View 32 v70,2013-11-12 10:43:00,
2013-11-12 02:48:00,36.7,31.7,30.18,East,90,3.0,4.0,82,0.00,,,0.00,Weather View 32 v70,2013-11-12 10:48:00,
2013-11-12 02:53:00,36.7,32.0,30.18,East,90,0.0,4.0,83,0.00,,,0.00,Weather View 32 v70,2013-11-12 10:53:00,
2013-11-12 02:58:00,36.7,32.0,30.18,East,90,0.0,4.0,83,0.00,,,0.00,Weather View 32 v70,2013-11-12 10:58:00,
2013-11-12 03:03:00,36.7,32.0,30.18,East,90,0.0,4.0,83,0.00,,,0.00,Weather View 32 v70,2013-11-12 11:03:00,
2013-11-12 03:08:00,36.7,32.0,30.18,East,90,0.0,4.0,83,0.00,,,0.00,Weather View 32 v70,2013-11-12 11:08:00,
2013-11-12 03:13:00,36.7,32.0,30.18,East,90,0.0,4.0,83,0.00,,,0.00,Weather View 32 v70,2013-11-12 11:13:00,
2013-11-12 03:18:00,36.7,32.0,30.18,East,90,0.0,4.0,83,0.00,,,0.00,Weather View 32 v70,2013-11-12 11:18:00,
2013-11-12 03:23:00,36.7,32.0,30.18,East,90,0.0,4.0,83,0.00,,,0.00,Weather View 32 v70,2013-11-12 11:23:00,
2013-11-12 03:28:00,36.7,32.0,30.18,East,90,0.0,4.0,83,0.00,,,0.00,Weather View 32 v70,2013-11-12 11:28:00,
2013-11-12 03:33:00,36.7,32.0,30.18,East,90,0.0,4.0,83,0.00,,,0.00,Weather View 32 v70,2013-11-12 11:33:00,
2013-11-12 03:38:00,36.5,31.8,30.18,East,90,0.0,4.0,83,0.00,,,0.00,Weather View 32 v70,2013-11-12 11:38:00,
2013-11-12 03:43:00,36.5,31.8,30.18,East,90,0.0,4.0,83,0.00,,,0.00,Weather View 32 v70,2013-11-12 11:43:00,
2013-11-12 03:48:00,36.5,31.8,30.18,East,90,0.0,4.0,83,0.00,,,0.00,Weather View 32 v70,2013-11-12 11:48:00,
2013-11-12 03:53:00,36.5,31.8,30.18,East,90,0.0,4.0,83,0.00,,,0.00,Weather View 32 v70,2013-11-12 11:53:00,
2013-11-12 03:58:00,36.5,31.8,30.18,East,90,3.0,4.0,83,0.00,,,0.00,Weather View 32 v70,2013-11-12 11:58:00,
2013-11-12 04:03:00,36.5,31.8,30.18,East,90,0.0,4.0,83,0.00,,,0.00,Weather View 32 v70,2013-11-12 12:03:00,
2013-11-12 04:08:00,36.5,31.8,30.18,East,90,0.0,4.0,83,0.00,,,0.00,Weather View 32 v70,2013-11-12 12:08:00,
2013-11-12 04:13:00,36.5,31.8,30.21,East,90,0.0,4.0,83,0.00,,,0.00,Weather View 32 v70,2013-11-12 12:13:00,
2013-11-12 04:18:00,36.5,31.8,30.21,East,90,4.0,5.0,83,0.00,,,0.00,Weather View 32 v70,2013-11-12 12:18:00,
2013-11-12 04:23:00,36.7,32.0,30.21,NW,304,4.0,6.0,83,0.00,,,0.00,Weather View 32 v70,2013-11-12 12:23:00,
2013-11-12 04:28:00,36.7,32.0,30.21,NW,320,4.0,6.0,83,0.00,,,0.00,Weather View 32 v70,2013-11-12 12:28:00,
2013-11-12 04:33:00,36.7,32.0,30.21,NNE,18,5.0,6.0,83,0.00,,,0.00,Weather View 32 v70,2013-11-12 12:33:00,
2013-11-12 04:38:00,36.9,32.2,30.21,NNW,336,3.0,6.0,83,0.00,,,0.00,Weather View 32 v70,2013-11-12 12:38:00,
2013-11-12 04:43:00,36.9,32.2,30.21,NW,320,0.0,6.0,83,0.00,,,0.00,Weather View 32 v70,2013-11-12 12:43:00,
2013-11-12 04:48:00,36.9,32.2,30.21,NW,320,0.0,6.0,83,0.00,,,0.00,Weather View 32 v70,2013-11-12 12:48:00,
2013-11-12 04:53:00,36.9,32.2,30.21,NW,320,0.0,6.0,83,0.00,,,0.00,Weather View 32 v70,2013-11-12 12:53:00,
2013-11-12 04:58:00,36.9,32.2,30.18,NW,320,0.0,6.0,83,0.00,,,0.00,Weather View 32 v70,2013-11-12 12:58:00,
2013-11-12 05:03:00,36.9,32.5,30.18,WNW,295,0.0,6.0,84,0.00,,,0.00,Weather View 32 v70,2013-11-12 13:03:00,
2013-11-12 05:08:00,36.9,33.1,30.18,SW,222,3.0,6.0,86,0.00,,,0.00,Weather View 32 v70,2013-11-12 13:08:00,
2013-11-12 05:13:00,36.9,33.4,30.18,SW,222,4.0,6.0,87,0.00,,,0.00,Weather View 32 v70,2013-11-12 13:13:00,
2013-11-12 05:18:00,36.9,33.6,30.18,SW,230,4.0,6.0,88,0.00,,,0.00,Weather View 32 v70,2013-11-12 13:18:00,
2013-11-12 05:23:00,36.9,33.6,30.18,SW,230,0.0,5.0,88,0.00,,,0.00,Weather View 32 v70,2013-11-12 13:23:00,
2013-11-12 05:28:00,36.9,33.6,30.18,SW,230,0.0,5.0,88,0.00,,,0.00,Weather View 32 v70,2013-11-12 13:28:00,
2013-11-12 05:33:00,37.0,33.8,30.18,SW,230,0.0,5.0,88,0.00,,,0.00,Weather View 32 v70,2013-11-12 13:33:00,
2013-11-12 05:38:00,37.0,33.8,30.18,SW,233,3.0,5.0,88,0.00,,,0.00,Weather View 32 v70,2013-11-12 13:38:00,
2013-11-12 05:43:00,37.0,33.8,30.18,WSW,257,3.0,5.0,88,0.00,,,0.00,Weather View 32 v70,2013-11-12 13:43:00,
2013-11-12 05:48:00,37.0,33.8,30.18,West,268,5.0,5.0,88,0.00,,,0.00,Weather View 32 v70,2013-11-12 13:48:00,
2013-11-12 05:53:00,37.0,33.8,30.18,West,264,0.0,5.0,88,0.00,,,0.00,Weather View 32 v70,2013-11-12 13:53:00,
2013-11-12 05:58:00,37.0,33.8,30.18,SW,222,3.0,5.0,88,0.00,,,0.00,Weather View 32 v70,2013-11-12 13:58:00,
2013-11-12 06:03:00,37.0,33.5,30.18,SW,222,0.0,5.0,87,0.00,,,0.00,Weather View 32 v70,2013-11-12 14:03:00,
2013-11-12 06:08:00,36.9,33.4,30.18,SW,231,0.0,5.0,87,0.00,,,0.00,Weather View 32 v70,2013-11-12 14:08:00,
2013-11-12 06:13:00,36.9,33.4,30.21,WSW,242,0.0,5.0,87,0.00,,,0.00,Weather View 32 v70,2013-11-12 14:13:00,
2013-11-12 06:19:00,36.9,33.4,30.21,WSW,242,0.0,5.0,87,0.00,,,0.00,Weather View 32 v70,2013-11-12 14:19:00,
2013-11-12 06:24:00,36.9,33.4,30.21,WSW,242,0.0,5.0,87,0.00,,,0.00,Weather View 32 v70,2013-11-12 14:24:00,
2013-11-12 06:29:00,36.9,33.4,30.21,WSW,242,0.0,5.0,87,0.00,,,0.00,Weather View 32 v70,2013-11-12 14:29:00,
2013-11-12 06:34:00,36.9,33.4,30.21,WSW,242,0.0,5.0,87,0.00,,,0.00,Weather View 32 v70,2013-11-12 14:34:00,
2013-11-12 06:39:00,36.9,33.4,30.21,WSW,242,0.0,5.0,87,0.00,,,0.00,Weather View 32 v70,2013-11-12 14:39:00,
2013-11-12 06:44:00,36.9,33.4,30.21,WSW,242,0.0,5.0,87,0.00,,,0.00,Weather View 32 v70,2013-11-12 14:44:00,
2013-11-12 06:49:00,36.7,33.2,30.21,WSW,242,0.0,5.0,87,0.00,,,0.00,Weather View 32 v70,2013-11-12 14:49:00,
2013-11-12 06:54:00,36.7,33.2,30.21,WSW,242,0.0,5.0,87,0.00,,,0.00,Weather View 32 v70,2013-11-12 14:54:00,
2013-11-12 06:59:00,36.7,33.2,30.21,WSW,242,0.0,5.0,87,0.00,,,0.00,Weather View 32 v70,2013-11-12 14:59:00,
2013-11-12 07:04:00,36.9,33.4,30.21,WSW,238,3.0,4.0,87,0.00,,,0.00,Weather View 32 v70,2013-11-12 15:04:00,
2013-11-12 07:09:00,36.9,33.6,30.21,SW,222,3.0,4.0,88,0.00,,,0.00,Weather View 32 v70,2013-11-12 15:09:00,
2013-11-12 07:14:00,37.0,33.8,30.21,SW,222,0.0,4.0,88,0.00,,,0.00,Weather View 32 v70,2013-11-12 15:14:00,
2013-11-12 07:19:00,37.2,34.0,30.21,SW,222,0.0,4.0,88,0.00,,,0.00,Weather View 32 v70,2013-11-12 15:19:00,
2013-11-12 07:24:00,37.4,34.2,30.21,SW,222,0.0,4.0,88,0.00,,,0.00,Weather View 32 v70,2013-11-12 15:24:00,
2013-11-12 07:29:00,37.4,34.2,30.21,SW,222,3.0,4.0,88,0.00,,,0.00,Weather View 32 v70,2013-11-12 15:29:00,
2013-11-12 07:34:00,37.6,34.3,30.21,West,267,3.0,4.0,88,0.00,,,0.00,Weather View 32 v70,2013-11-12 15:34:00,
2013-11-12 07:39:00,37.9,34.7,30.21,West,271,2.0,4.0,88,0.00,,,0.00,Weather View 32 v70,2013-11-12 15:39:00,
2013-11-12 07:44:00,38.7,35.7,30.21,WNW,292,3.0,6.0,89,0.00,,,0.00,Weather View 32 v70,2013-11-12 15:44:00,
2013-11-12 07:49:00,39.2,36.2,30.21,West,276,4.0,6.0,89,0.00,,,0.00,Weather View 32 v70,2013-11-12 15:49:00,
2013-11-12 07:54:00,39.7,36.5,30.21,West,259,4.0,6.0,88,0.00,,,0.00,Weather View 32 v70,2013-11-12 15:54:00,
2013-11-12 07:59:00,40.3,37.0,30.21,West,270,5.0,6.0,88,0.00,,,0.00,Weather View 32 v70,2013-11-12 15:59:00,
2013-11-12 08:04:00,40.6,36.5,30.21,West,271,3.0,6.0,85,0.00,,,0.00,Weather View 32 v70,2013-11-12 16:04:00,
2013-11-12 08:09:00,41.0,34.3,30.21,West,270,3.0,7.0,77,0.00,,,0.00,Weather View 32 v70,2013-11-12 16:09:00,
2013-11-12 08:14:00,41.2,34.2,30.21,WNW,293,3.0,7.0,76,0.00,,,0.00,Weather View 32 v70,2013-11-12 16:14:00,
2013-11-12 08:19:00,41.4,33.3,30.21,WSW,253,4.0,7.0,73,0.00,,,0.00,Weather View 32 v70,2013-11-12 16:19:00,
2013-11-12 08:24:00,41.5,32.1,30.21,WSW,252,4.0,7.0,69,0.00,,,0.00,Weather View 32 v70,2013-11-12 16:24:00,
2013-11-12 08:29:00,41.9,31.4,30.21,WSW,247,5.0,7.0,66,0.00,,,0.00,Weather View 32 v70,2013-11-12 16:29:00,
2013-11-12 08:34:00,42.8,29.9,30.21,West,263,3.0,7.0,60,0.00,,,0.00,Weather View 32 v70,2013-11-12 16:34:00,
2013-11-12 08:39:00,43.2,28.5,30.21,WNW,283,4.0,7.0,56,0.00,,,0.00,Weather View 32 v70,2013-11-12 16:39:00,
2013-11-12 08:44:00,43.9,29.2,30.21,West,265,4.0,7.0,56,0.00,,,0.00,Weather View 32 v70,2013-11-12 16:44:00,
2013-11-12 08:49:00,44.2,29.1,30.21,West,261,4.0,7.0,55,0.00,,,0.00,Weather View 32 v70,2013-11-12 16:49:00,
2013-11-12 08:55:00,44.6,28.5,30.21,WSW,255,0.0,7.0,53,0.00,,,0.00,Weather View 32 v70,2013-11-12 16:55:00,
2013-11-12 09:00:00,45.0,28.4,30.21,West,275,3.0,7.0,52,0.00,,,0.00,Weather View 32 v70,2013-11-12 17:00:00,
2013-11-12 09:05:00,45.3,28.7,30.21,West,271,4.0,7.0,52,0.00,,,0.00,Weather View 32 v70,2013-11-12 17:05:00,
2013-11-12 09:10:00,45.7,29.0,30.21,West,276,4.0,6.0,52,0.00,,,0.00,Weather View 32 v70,2013-11-12 17:10:00,
2013-11-12 09:15:00,46.0,29.8,30.21,WNW,299,3.0,6.0,53,0.00,,,0.00,Weather View 32 v70,2013-11-12 17:15:00,
2013-11-12 09:20:00,46.2,30.0,30.21,WNW,303,6.0,6.0,53,0.00,,,0.00,Weather View 32 v70,2013-11-12 17:20:00,
2013-11-12 09:25:00,46.6,28.9,30.21,West,279,5.0,8.0,50,0.00,,,0.00,Weather View 32 v70,2013-11-12 17:25:00,
2013-11-12 09:30:00,46.9,28.7,30.21,West,269,5.0,8.0,49,0.00,,,0.00,Weather View 32 v70,2013-11-12 17:30:00,
2013-11-12 09:35:00,47.5,27.7,30.21,West,271,4.0,8.0,46,0.00,,,0.00,Weather View 32 v70,2013-11-12 17:35:00,
2013-11-12 09:40:00,48.0,28.2,30.21,WNW,298,5.0,8.0,46,0.00,,,0.00,Weather View 32 v70,2013-11-12 17:40:00,
2013-11-12 09:45:00,48.0,26.6,30.24,West,273,3.0,8.0,43,0.00,,,0.00,Weather View 32 v70,2013-11-12 17:45:00,
2013-11-12 09:50:00,48.4,26.9,30.24,West,275,4.0,8.0,43,0.00,,,0.00,Weather View 32 v70,2013-11-12 17:50:00,
2013-11-12 09:55:00,48.6,26.5,30.24,WSW,246,3.0,8.0,42,0.00,,,0.00,Weather View 32 v70,2013-11-12 17:55:00,
2013-11-12 10:00:00,48.9,26.8,30.24,WSW,250,3.0,8.0,42,0.00,,,0.00,Weather View 32 v70,2013-11-12 18:00:00,
2013-11-12 10:05:00,49.1,27.0,30.24,NW,321,2.0,8.0,42,0.00,,,0.00,Weather View 32 v70,2013-11-12 18:05:00,
2013-11-12 10:10:00,49.3,27.1,30.24,West,266,0.0,8.0,42,0.00,,,0.00,Weather View 32 v70,2013-11-12 18:10:00,
2013-11-12 10:15:00,49.5,27.3,30.24,West,274,3.0,8.0,42,0.00,,,0.00,Weather View 32 v70,2013-11-12 18:15:00,
2013-11-12 10:20:00,49.6,26.9,30.24,WSW,241,3.0,8.0,41,0.00,,,0.00,Weather View 32 v70,2013-11-12 18:20:00,
2013-11-12 10:25:00,49.8,27.0,30.24,West,278,4.0,9.0,41,0.00,,,0.00,Weather View 32 v70,2013-11-12 18:25:00,
2013-11-12 10:30:00,50.2,27.3,30.24,West,274,8.0,11.0,41,0.00,,,0.00,Weather View 32 v70,2013-11-12 18:30:00,
2013-11-12 10:35:00,50.5,27.7,30.24,West,263,5.0,11.0,41,0.00,,,0.00,Weather View 32 v70,2013-11-12 18:35:00,
2013-11-12 10:40:00,51.1,27.6,30.24,WSW,243,12.0,12.0,40,0.00,,,0.00,Weather View 32 v70,2013-11-12 18:40:00,
2013-11-12 10:45:00,51.6,28.6,30.24,WNW,283,11.0,13.0,41,0.00,,,0.00,Weather View 32 v70,2013-11-12 18:45:00,
2013-11-12 10:50:00,52.0,28.4,30.24,West,268,10.0,13.0,40,0.00,,,0.00,Weather View 32 v70,2013-11-12 18:50:00,
2013-11-12 10:55:00,52.3,29.3,30.24,West,280,5.0,14.0,41,0.00,,,0.00,Weather View 32 v70,2013-11-12 18:55:00,
2013-11-12 11:00:00,52.7,29.6,30.24,WNW,298,13.0,16.0,41,0.00,,,0.00,Weather View 32 v70,2013-11-12 19:00:00,
2013-11-12 11:05:00,52.7,29.6,30.24,WNW,282,8.0,16.0,41,0.00,,,0.00,Weather View 32 v70,2013-11-12 19:05:00,
2013-11-12 11:10:00,52.9,29.8,30.24,WSW,255,4.0,17.0,41,0.00,,,0.00,Weather View 32 v70,2013-11-12 19:10:00,
2013-11-12 11:15:00,53.1,29.3,30.24,North,0,5.0,17.0,40,0.00,,,0.00,Weather View 32 v70,2013-11-12 19:15:00,
2013-11-12 11:21:00,53.4,30.3,30.24,NNW,342,12.0,17.0,41,0.00,,,0.00,Weather View 32 v70,2013-11-12 19:21:00,
2013-11-12 11:26:00,53.6,29.8,30.24,WNW,298,10.0,17.0,40,0.00,,,0.00,Weather View 32 v70,2013-11-12 19:26:00,
2013-11-12 11:31:00,53.8,30.0,30.24,WNW,300,8.0,17.0,40,0.00,,,0.00,Weather View 32 v70,2013-11-12 19:31:00,
2013-11-12 11:36:00,54.0,30.1,30.24,NW,314,8.0,17.0,40,0.00,,,0.00,Weather View 32 v70,2013-11-12 19:36:00,
2013-11-12 11:41:00,54.3,30.5,30.24,WNW,297,9.0,17.0,40,0.00,,,0.00,Weather View 32 v70,2013-11-12 19:41:00,
2013-11-12 11:46:00,54.7,30.8,30.24,WNW,297,8.0,17.0,40,0.00,,,0.00,Weather View 32 v70,2013-11-12 19:46:00,
2013-11-12 11:51:00,54.9,30.9,30.24,NW,325,8.0,17.0,40,0.00,,,0.00,Weather View 32 v70,2013-11-12 19:51:00,
2013-11-12 11:56:00,55.2,30.6,30.24,NW,304,6.0,17.0,39,0.00,,,0.00,Weather View 32 v70,2013-11-12 19:56:00,
2013-11-12 12:01:00,55.6,30.3,30.24,NW,319,11.0,17.0,38,0.00,,,0.00,Weather View 32 v70,2013-11-12 20:01:00,
2013-11-12 12:06:00,56.1,30.1,30.24,NW,308,10.0,17.0,37,0.00,,,0.00,Weather View 32 v70,2013-11-12 20:06:00,
2013-11-12 12:11:00,56.5,30.5,30.24,NNW,335,15.0,17.0,37,0.00,,,0.00,Weather View 32 v70,2013-11-12 20:11:00,
2013-11-12 12:16:00,56.7,30.6,30.24,NW,320,8.0,17.0,37,0.00,,,0.00,Weather View 32 v70,2013-11-12 20:16:00,
2013-11-12 12:21:00,56.8,30.8,30.24,NW,309,8.0,17.0,37,0.00,,,0.00,Weather View 32 v70,2013-11-12 20:21:00,
2013-11-12 12:26:00,56.8,30.8,30.24,NNW,342,11.0,17.0,37,0.00,,,0.00,Weather View 32 v70,2013-11-12 20:26:00,
2013-11-12 12:31:00,56.8,31.4,30.24,NW,317,13.0,17.0,38,0.00,,,0.00,Weather View 32 v70,2013-11-12 20:31:00,
2013-11-12 12:36:00,56.8,31.4,30.24,NW,316,15.0,17.0,38,0.00,,,0.00,Weather View 32 v70,2013-11-12 20:36:00,
2013-11-12 12:41:00,56.8,31.4,30.24,WNW,303,13.0,17.0,38,0.00,,,0.00,Weather View 32 v70,2013-11-12 20:41:00,
2013-11-12 12:46:00,57.6,32.7,30.24,WNW,283,6.0,17.0,39,0.00,,,0.00,Weather View 32 v70,2013-11-12 20:46:00,
2013-11-12 12:51:00,58.6,33.1,30.24,WNW,289,9.0,17.0,38,0.00,,,0.00,Weather View 32 v70,2013-11-12 20:51:00,
2013-11-12 12:56:00,59.5,33.9,30.24,NNW,344,7.0,17.0,38,0.00,,,0.00,Weather View 32 v70,2013-11-12 20:56:00,
2013-11-12 13:01:00,59.5,33.9,30.24,NNW,343,9.0,17.0,38,0.00,,,0.00,Weather View 32 v70,2013-11-12 21:01:00,
2013-11-12 13:06:00,58.8,33.2,30.24,North,0,9.0,17.0,38,0.00,,,0.00,Weather View 32 v70,2013-11-12 21:06:00,
2013-11-12 13:11:00,58.6,33.7,30.24,NNE,31,9.0,17.0,39,0.00,,,0.00,Weather View 32 v70,2013-11-12 21:11:00,
2013-11-12 13:16:00,59.0,33.4,30.24,NNW,333,8.0,17.0,38,0.00,,,0.00,Weather View 32 v70,2013-11-12 21:16:00,
2013-11-12 13:21:00,59.2,34.2,30.24,North,2,5.0,17.0,39,0.00,,,0.00,Weather View 32 v70,2013-11-12 21:21:00,
2013-11-12 13:26:00,59.4,34.3,30.24,NW,324,5.0,16.0,39,0.00,,,0.00,Weather View 32 v70,2013-11-12 21:26:00,
2013-11-12 13:31:00,59.5,34.5,30.24,NW,325,6.0,16.0,39,0.00,,,0.00,Weather View 32 v70,2013-11-12 21:31:00,
2013-11-12 13:36:00,59.7,34.7,30.24,NW,320,10.0,16.0,39,0.00,,,0.00,Weather View 32 v70,2013-11-12 21:36:00,
2013-11-12 13:41:00,59.7,34.7,30.24,NW,306,12.0,16.0,39,0.00,,,0.00,Weather View 32 v70,2013-11-12 21:41:00,
2013-11-12 13:46:00,59.7,34.7,30.24,NW,316,11.0,16.0,39,0.00,,,0.00,Weather View 32 v70,2013-11-12 21:46:00,
2013-11-12 13:51:00,60.1,34.3,30.24,NNE,17,13.0,16.0,38,0.00,,,0.00,Weather View 32 v70,2013-11-12 21:51:00,
2013-11-12 13:56:00,59.7,34.0,30.24,NW,308,5.0,16.0,38,0.00,,,0.00,Weather View 32 v70,2013-11-12 21:56:00,
2013-11-12 14:01:00,59.4,34.3,30.21,WNW,298,6.0,16.0,39,0.00,,,0.00,Weather View 32 v70,2013-11-12 22:01:00,
2013-11-12 14:06:00,59.2,34.2,30.21,NW,312,8.0,16.0,39,0.00,,,0.00,Weather View 32 v70,2013-11-12 22:06:00,
2013-11-12 14:12:00,58.8,34.5,30.21,NW,308,6.0,16.0,40,0.00,,,0.00,Weather View 32 v70,2013-11-12 22:12:00,
2013-11-12 14:17:00,58.8,34.5,30.24,WNW,299,8.0,16.0,40,0.00,,,0.00,Weather View 32 v70,2013-11-12 22:17:00,
2013-11-12 14:22:00,59.2,34.2,30.24,West,259,6.0,16.0,39,0.00,,,0.00,Weather View 32 v70,2013-11-12 22:22:00,
2013-11-12 14:27:00,59.2,34.2,30.24,West,280,6.0,16.0,39,0.00,,,0.00,Weather View 32 v70,2013-11-12 22:27:00,
2013-11-12 14:32:00,59.4,34.3,30.24,West,271,8.0,15.0,39,0.00,,,0.00,Weather View 32 v70,2013-11-12 22:32:00,
2013-11-12 14:37:00,59.4,34.3,30.24,NW,320,8.0,15.0,39,0.00,,,0.00,Weather View 32 v70,2013-11-12 22:37:00,
2013-11-12 14:42:00,59.2,34.2,30.24,NW,320,9.0,15.0,39,0.00,,,0.00,Weather View 32 v70,2013-11-12 22:42:00,
2013-11-12 14:47:00,59.2,34.2,30.24,NW,309,6.0,15.0,39,0.00,,,0.00,Weather View 32 v70,2013-11-12 22:47:00,
2013-11-12 14:52:00,59.2,34.2,30.24,West,267,4.0,13.0,39,0.00,,,0.00,Weather View 32 v70,2013-11-12 22:52:00,
2013-11-12 14:57:00,59.2,34.8,30.24,WNW,299,8.0,13.0,40,0.00,,,0.00,Weather View 32 v70,2013-11-12 22:57:00,
2013-11-12 15:02:00,59.2,34.8,30.24,West,273,6.0,13.0,40,0.00,,,0.00,Weather View 32 v70,2013-11-12 23:02:00,
2013-11-12 15:07:00,59.2,34.8,30.24,NNW,344,5.0,13.0,40,0.00,,,0.00,Weather View 32 v70,2013-11-12 23:07:00,
2013-11-12 15:12:00,59.0,34.7,30.24,WNW,296,8.0,13.0,40,0.00,,,0.00,Weather View 32 v70,2013-11-12 23:12:00,
2013-11-12 15:17:00,58.8,35.1,30.24,West,276,6.0,13.0,41,0.00,,,0.00,Weather View 32 v70,2013-11-12 23:17:00,
2013-11-12 15:22:00,59.2,34.8,30.24,NW,312,5.0,13.0,40,0.00,,,0.00,Weather View 32 v70,2013-11-12 23:22:00,
2013-11-12 15:27:00,59.2,34.8,30.24,NW,315,7.0,11.0,40,0.00,,,0.00,Weather View 32 v70,2013-11-12 23:27:00,
2013-11-12 15:32:00,59.2,34.8,30.24,NW,319,4.0,11.0,40,0.00,,,0.00,Weather View 32 v70,2013-11-12 23:32:00,
2013-11-12 15:37:00,58.8,34.5,30.24,WNW,291,0.0,11.0,40,0.00,,,0.00,Weather View 32 v70,2013-11-12 23:37:00,
2013-11-12 15:42:00,58.6,34.3,30.24,WNW,299,0.0,11.0,40,0.00,,,0.00,Weather View 32 v70,2013-11-12 23:42:00,
2013-11-12 15:47:00,58.3,34.6,30.24,WNW,302,0.0,11.0,41,0.00,,,0.00,Weather View 32 v70,2013-11-12 23:47:00,
2013-11-12 15:52:00,58.1,34.5,30.24,WNW,302,0.0,11.0,41,0.00,,,0.00,Weather View 32 v70,2013-11-12 23:52:00,
2013-11-12 15:57:00,57.7,34.1,30.24,West,281,0.0,11.0,41,0.00,,,0.00,Weather View 32 v70,2013-11-12 23:57:00,
2013-11-12 16:02:00,57.6,34.6,30.24,WNW,282,3.0,9.0,42,0.00,,,0.00,Weather View 32 v70,2013-11-13 00:02:00,
2013-11-12 16:07:00,57.6,34.6,30.24,WNW,282,0.0,9.0,42,0.00,,,0.00,Weather View 32 v70,2013-11-13 00:07:00,
2013-11-12 16:12:00,57.6,35.2,30.24,WNW,282,0.0,9.0,43,0.00,,,0.00,Weather View 32 v70,2013-11-13 00:12:00,
2013-11-12 16:17:00,57.2,34.9,30.24,WNW,282,0.0,9.0,43,0.00,,,0.00,Weather View 32 v70,2013-11-13 00:17:00,
2013-11-12 16:22:00,56.8,35.1,30.24,WNW,282,0.0,9.0,44,0.00,,,0.00,Weather View 32 v70,2013-11-13 00:22:00,
2013-11-12 16:27:00,56.3,35.2,30.24,West,264,2.0,8.0,45,0.00,,,0.00,Weather View 32 v70,2013-11-13 00:27:00,
2013-11-12 16:32:00,55.9,34.9,30.24,SW,222,4.0,8.0,45,0.00,,,0.00,Weather View 32 v70,2013-11-13 00:32:00,
2013-11-12 16:37:00,55.6,34.5,30.24,SW,222,3.0,5.0,45,0.00,,,0.00,Weather View 32 v70,2013-11-13 00:37:00,
2013-11-12 16:43:00,55.2,35.8,30.24,SW,222,5.0,8.0,48,0.00,,,0.00,Weather View 32 v70,2013-11-13 00:43:00,
2013-11-12 16:48:00,54.9,36.0,30.24,SW,222,2.0,8.0,49,0.00,,,0.00,Weather View 32 v70,2013-11-13 00:48:00,
2013-11-12 16:53:00,54.3,35.5,30.24,SW,222,2.0,8.0,49,0.00,,,0.00,Weather View 32 v70,2013-11-13 00:53:00,
2013-11-12 16:58:00,53.8,36.0,30.24,SW,222,3.0,8.0,51,0.00,,,0.00,Weather View 32 v70,2013-11-13 00:58:00,
2013-11-12 17:03:00,53.2,36.0,30.27,SW,222,3.0,8.0,52,0.00,,,0.00,Weather View 32 v70,2013-11-13 01:03:00,
2013-11-12 17:08:00,52.5,35.8,30.27,SW,222,0.0,8.0,53,0.00,,,0.00,Weather View 32 v70,2013-11-13 01:08:00,
2013-11-12 17:13:00,52.0,34.9,30.27,SW,222,0.0,8.0,52,0.00,,,0.00,Weather View 32 v70,2013-11-13 01:13:00,
2013-11-12 17:18:00,51.4,34.8,30.27,SW,222,0.0,8.0,53,0.00,,,0.00,Weather View 32 v70,2013-11-13 01:18:00,
2013-11-12 17:23:00,50.7,34.2,30.27,SW,222,0.0,8.0,53,0.00,,,0.00,Weather View 32 v70,2013-11-13 01:23:00,
2013-11-12 17:28:00,50.0,34.0,30.27,SW,222,0.0,8.0,54,0.00,,,0.00,Weather View 32 v70,2013-11-13 01:28:00,
2013-11-12 17:33:00,49.3,34.7,30.27,SW,222,0.0,8.0,57,0.00,,,0.00,Weather View 32 v70,2013-11-13 01:33:00,
2013-11-12 17:38:00,48.7,35.0,30.27,SW,222,0.0,8.0,59,0.00,,,0.00,Weather View 32 v70,2013-11-13 01:38:00,
2013-11-12 17:43:00,47.8,34.2,30.27,SW,222,0.0,5.0,59,0.00,,,0.00,Weather View 32 v70,2013-11-13 01:43:00,
2013-11-12 17:48:00,47.3,33.7,30.24,SW,222,0.0,5.0,59,0.00,,,0.00,Weather View 32 v70,2013-11-13 01:48:00,
2013-11-12 17:53:00,46.6,33.4,30.24,SW,222,0.0,5.0,60,0.00,,,0.00,Weather View 32 v70,2013-11-13 01:53:00,
2013-11-12 17:58:00,46.2,35.1,30.24,SW,222,0.0,5.0,65,0.00,,,0.00,Weather View 32 v70,2013-11-13 01:58:00,
2013-11-12 18:03:00,45.5,34.0,30.27,SW,222,0.0,4.0,64,0.00,,,0.00,Weather View 32 v70,2013-11-13 02:03:00,
2013-11-12 18:08:00,45.0,33.1,30.27,SW,222,0.0,0.0,63,0.00,,,0.00,Weather View 32 v70,2013-11-13 02:08:00,
2013-11-12 18:13:00,44.4,32.6,30.27,SW,222,0.0,0.0,63,0.00,,,0.00,Weather View 32 v70,2013-11-13 02:13:00,
2013-11-12 18:18:00,44.1,32.3,30.27,SW,222,0.0,0.0,63,0.00,,,0.00,Weather View 32 v70,2013-11-13 02:18:00,
2013-11-12 18:23:00,43.5,31.7,30.27,SW,222,0.0,0.0,63,0.00,,,0.00,Weather View 32 v70,2013-11-13 02:23:00,
2013-11-12 18:28:00,43.2,32.9,30.27,SW,222,0.0,0.0,67,0.00,,,0.00,Weather View 32 v70,2013-11-13 02:28:00,
2013-11-12 18:33:00,42.4,32.2,30.27,SW,222,0.0,0.0,67,0.00,,,0.00,Weather View 32 v70,2013-11-13 02:33:00,
2013-11-12 18:38:00,42.1,31.9,30.27,SW,222,0.0,0.0,67,0.00,,,0.00,Weather View 32 v70,2013-11-13 02:38:00,
2013-11-12 18:43:00,41.7,32.3,30.27,SW,222,0.0,0.0,69,0.00,,,0.00,Weather View 32 v70,2013-11-13 02:43:00,
2013-11-12 18:48:00,41.4,31.9,30.27,SW,222,0.0,0.0,69,0.00,,,0.00,Weather View 32 v70,2013-11-13 02:48:00,
2013-11-12 18:53:00,41.2,31.8,30.27,SW,222,0.0,0.0,69,0.00,,,0.00,Weather View 32 v70,2013-11-13 02:53:00,
2013-11-12 18:58:00,41.0,31.6,30.27,SW,222,0.0,0.0,69,0.00,,,0.00,Weather View 32 v70,2013-11-13 02:58:00,
2013-11-12 19:03:00,40.6,31.3,30.30,SW,222,0.0,0.0,69,0.00,,,0.00,Weather View 32 v70,2013-11-13 03:03:00,
2013-11-12 19:08:00,40.5,31.1,30.30,SW,222,0.0,0.0,69,0.00,,,0.00,Weather View 32 v70,2013-11-13 03:08:00,
2013-11-12 19:13:00,40.3,30.9,30.30,SW,222,0.0,0.0,69,0.00,,,0.00,Weather View 32 v70,2013-11-13 03:13:00,
2013-11-12 19:19:00,39.9,30.6,30.30,SW,222,0.0,0.0,69,0.00,,,0.00,Weather View 32 v70,2013-11-13 03:19:00,
2013-11-12 19:24:00,39.7,30.7,30.30,SW,222,0.0,0.0,70,0.00,,,0.00,Weather View 32 v70,2013-11-13 03:24:00,
2013-11-12 19:29:00,39.6,30.2,30.30,SW,222,0.0,0.0,69,0.00,,,0.00,Weather View 32 v70,2013-11-13 03:29:00,
2013-11-12 19:34:00,39.2,29.9,30.30,SW,222,0.0,0.0,69,0.00,,,0.00,Weather View 32 v70,2013-11-13 03:34:00,
2013-11-12 19:39:00,39.0,30.1,30.30,SW,222,0.0,0.0,70,0.00,,,0.00,Weather View 32 v70,2013-11-13 03:39:00,
2013-11-12 19:44:00,38.8,30.2,30.30,SW,222,0.0,0.0,71,0.00,,,0.00,Weather View 32 v70,2013-11-13 03:44:00,
2013-11-12 19:49:00,38.7,30.1,30.30,SW,222,0.0,0.0,71,0.00,,,0.00,Weather View 32 v70,2013-11-13 03:49:00,
2013-11-12 19:54:00,38.5,30.2,30.30,SW,222,0.0,0.0,72,0.00,,,0.00,Weather View 32 v70,2013-11-13 03:54:00,
2013-11-12 19:59:00,38.3,29.7,30.30,SW,222,0.0,0.0,71,0.00,,,0.00,Weather View 32 v70,2013-11-13 03:59:00,
2013-11-12 20:04:00,38.1,30.6,30.30,SW,222,0.0,0.0,74,0.00,,,0.00,Weather View 32 v70,2013-11-13 04:04:00,
2013-11-12 20:09:00,37.9,30.7,30.30,SW,222,0.0,0.0,75,0.00,,,0.00,Weather View 32 v70,2013-11-13 04:09:00,
2013-11-12 20:14:00,37.8,30.2,30.30,SW,222,0.0,0.0,74,0.00,,,0.00,Weather View 32 v70,2013-11-13 04:14:00,
2013-11-12 20:19:00,37.6,30.0,30.30,SW,222,0.0,0.0,74,0.00,,,0.00,Weather View 32 v70,2013-11-13 04:19:00,
2013-11-12 20:24:00,37.6,30.0,30.30,SW,222,0.0,0.0,74,0.00,,,0.00,Weather View 32 v70,2013-11-13 04:24:00,
2013-11-12 20:29:00,37.4,29.5,30.30,SW,222,0.0,0.0,73,0.00,,,0.00,Weather View 32 v70,2013-11-13 04:29:00,
2013-11-12 20:34:00,37.0,29.5,30.30,SW,222,0.0,0.0,74,0.00,,,0.00,Weather View 32 v70,2013-11-13 04:34:00,
2013-11-12 20:39:00,37.0,29.2,30.30,SW,222,0.0,0.0,73,0.00,,,0.00,Weather View 32 v70,2013-11-13 04:39:00,
2013-11-12 20:44:00,36.9,29.0,30.30,SW,222,0.0,0.0,73,0.00,,,0.00,Weather View 32 v70,2013-11-13 04:44:00,
2013-11-12 20:49:00,36.7,28.8,30.30,SW,222,0.0,0.0,73,0.00,,,0.00,Weather View 32 v70,2013-11-13 04:49:00,
2013-11-12 20:54:00,36.5,28.7,30.30,SW,222,0.0,0.0,73,0.00,,,0.00,Weather View 32 v70,2013-11-13 04:54:00,
2013-11-12 20:59:00,36.3,28.5,30.30,SW,222,0.0,0.0,73,0.00,,,0.00,Weather View 32 v70,2013-11-13 04:59:00,
2013-11-12 21:01:00,36.3,28.8,30.30,SW,222,0.0,0.0,74,0.00,,,0.00,Weather View 32 v70,2013-11-13 05:01:00,
2013-11-12 21:02:00,36.3,28.8,30.30,SW,222,0.0,0.0,74,0.00,,,0.00,Weather View 32 v70,2013-11-13 05:02:00,
2013-11-12 21:07:00,36.1,28.6,30.30,SW,222,0.0,0.0,74,0.00,,,0.00,Weather View 32 v70,2013-11-13 05:07:00,
2013-11-12 21:12:00,35.8,28.0,30.30,SW,222,0.0,0.0,73,0.00,,,0.00,Weather View 32 v70,2013-11-13 05:12:00,
2013-11-12 21:17:00,35.6,28.1,30.30,SW,222,0.0,0.0,74,0.00,,,0.00,Weather View 32 v70,2013-11-13 05:17:00,
2013-11-12 21:22:00,35.6,28.1,30.30,SW,222,0.0,0.0,74,0.00,,,0.00,Weather View 32 v70,2013-11-13 05:22:00,
2013-11-12 21:27:00,35.2,27.8,30.30,SW,222,0.0,0.0,74,0.00,,,0.00,Weather View 32 v70,2013-11-13 05:27:00,
2013-11-12 21:32:00,35.1,27.6,30.30,SW,222,0.0,0.0,74,0.00,,,0.00,Weather View 32 v70,2013-11-13 05:32:00,
2013-11-12 21:37:00,34.9,27.8,30.30,SW,222,0.0,0.0,75,0.00,,,0.00,Weather View 32 v70,2013-11-13 05:37:00,
2013-11-12 21:42:00,34.7,27.6,30.30,SW,222,0.0,0.0,75,0.00,,,0.00,Weather View 32 v70,2013-11-13 05:42:00,
2013-11-12 21:47:00,34.5,28.0,30.30,SW,222,0.0,0.0,77,0.00,,,0.00,Weather View 32 v70,2013-11-13 05:47:00,
2013-11-12 21:52:00,34.3,27.9,30.30,SW,222,0.0,0.0,77,0.00,,,0.00,Weather View 32 v70,2013-11-13 05:52:00,
2013-11-12 21:57:00,34.2,28.0,30.30,SW,222,0.0,0.0,78,0.00,,,0.00,Weather View 32 v70,2013-11-13 05:57:00,
2013-11-12 22:02:00,34.0,27.8,30.30,SW,222,0.0,0.0,78,0.00,,,0.00,Weather View 32 v70,2013-11-13 06:02:00,
2013-11-12 22:07:00,33.8,27.7,30.30,SW,222,0.0,0.0,78,0.00,,,0.00,Weather View 32 v70,2013-11-13 06:07:00,
2013-11-12 22:12:00,33.6,27.5,30.30,SW,222,0.0,0.0,78,0.00,,,0.00,Weather View 32 v70,2013-11-13 06:12:00,
2013-11-12 22:17:00,33.4,27.3,30.30,SW,222,0.0,0.0,78,0.00,,,0.00,Weather View 32 v70,2013-11-13 06:17:00,
2013-11-12 22:22:00,33.3,27.1,30.30,SW,222,0.0,0.0,78,0.00,,,0.00,Weather View 32 v70,2013-11-13 06:22:00,
2013-11-12 22:27:00,33.1,27.0,30.30,SW,222,0.0,0.0,78,0.00,,,0.00,Weather View 32 v70,2013-11-13 06:27:00,
2013-11-12 22:32:00,32.9,26.8,30.33,SW,222,0.0,0.0,78,0.00,,,0.00,Weather View 32 v70,2013-11-13 06:32:00,
2013-11-12 22:37:00,32.7,26.6,30.33,SW,222,0.0,0.0,78,0.00,,,0.00,Weather View 32 v70,2013-11-13 06:37:00,
2013-11-12 22:42:00,32.5,26.4,30.33,SW,222,0.0,0.0,78,0.00,,,0.00,Weather View 32 v70,2013-11-13 06:42:00,
2013-11-12 22:47:00,32.4,26.3,30.33,SW,222,0.0,0.0,78,0.00,,,0.00,Weather View 32 v70,2013-11-13 06:47:00,
2013-11-12 22:52:00,32.2,25.8,30.33,SW,222,0.0,0.0,77,0.00,,,0.00,Weather View 32 v70,2013-11-13 06:52:00,
2013-11-12 22:57:00,32.0,25.6,30.33,SW,222,0.0,0.0,77,0.00,,,0.00,Weather View 32 v70,2013-11-13 06:57:00,
2013-11-12 23:02:00,31.8,25.4,30.33,SW,222,0.0,0.0,77,0.00,,,0.00,Weather View 32 v70,2013-11-13 07:02:00,
2013-11-12 23:07:00,31.6,25.3,30.33,SW,222,0.0,0.0,77,0.00,,,0.00,Weather View 32 v70,2013-11-13 07:07:00,
2013-11-12 23:12:00,31.5,25.1,30.33,SW,222,0.0,0.0,77,0.00,,,0.00,Weather View 32 v70,2013-11-13 07:12:00,
2013-11-12 23:17:00,31.3,24.9,30.33,SW,222,0.0,0.0,77,0.00,,,0.00,Weather View 32 v70,2013-11-13 07:17:00,
2013-11-12 23:22:00,31.1,24.7,30.33,SW,222,0.0,0.0,77,0.00,,,0.00,Weather View 32 v70,2013-11-13 07:22:00,
2013-11-12 23:27:00,30.9,24.6,30.33,SW,222,0.0,0.0,77,0.00,,,0.00,Weather View 32 v70,2013-11-13 07:27:00,
2013-11-12 23:32:00,30.7,24.4,30.33,SW,222,0.0,0.0,77,0.00,,,0.00,Weather View 32 v70,2013-11-13 07:32:00,
2013-11-12 23:37:00,30.6,24.2,30.33,SW,222,0.0,0.0,77,0.00,,,0.00,Weather View 32 v70,2013-11-13 07:37:00,
2013-11-12 23:42:00,30.6,24.2,30.33,SW,222,0.0,0.0,77,0.00,,,0.00,Weather View 32 v70,2013-11-13 07:42:00,
2013-11-12 23:47:00,30.4,24.0,30.33,SW,222,0.0,0.0,77,0.00,,,0.00,Weather View 32 v70,2013-11-13 07:47:00,
2013-11-12 23:52:00,30.2,24.2,30.33,SW,222,0.0,0.0,78,0.00,,,0.00,Weather View 32 v70,2013-11-13 07:52:00,
2013-11-12 23:57:00,30.2,24.2,30.33,SW,222,0.0,0.0,78,0.00,,,0.00,Weather View 32 v70,2013-11-13 07:57:00,